Regional Weather Roundup
Issued by NWS

Home | Current Version | Previous Version | Graphics & Text | Print | Product List | Glossary On
Versions: 1 2 3 4 5 6 7 8 9 10 11 12 13 14 15 16 17 18 19 20 21 22 23 24 25 26 27 28 29 30 31 32 33 34 35 36 37 38 39 40 41 42 43 44 45 46 47 48 49 50
000
ASUS45 KTFX 310410
RWRMT
MONTANA REGIONAL WEATHER ROUNDUP
NATIONAL WEATHER SERVICE GREAT FALLS MT
1000 PM MDT THU JUL 30 2015

NOTE: "FAIR" INDICATES FEW OR NO CLOUDS BELOW 12000 FEET WITH NO
SIGNIFICANT WEATHER AND/OR OBSTRUCTIONS TO VISIBILITY.

MTZ001>007-043-310500-
WEST OF THE DIVIDE

CITY           SKY/WX    TMP DP  RH WIND       PRES   REMARKS
KALISPELL      CLEAR     66  41  40 NW3       30.13R
MISSOULA       CLEAR     71  41  33 N7        30.16R
BUTTE          CLEAR     64  43  46 SE8       30.33R
MULLAN PASS    CLEAR     67  30  25 NW5       30.36R
DEER LODGE       N/A     64  39  39 W5        30.30R
EUREKA           N/A     75  36  23 CALM      30.12R
HAMILTON         N/A     66  50  55 S2        30.19R
LIBBY            N/A     73  37  27 SE6       30.13R
PLAINS           N/A     76  36  23 CALM      30.12R
RONAN            N/A     70  50  49 E5        30.18R
THOMPSON FALLS   N/A     76  32  20 E1        30.15R
$$

MTZ008-052>055-310500-
SOUTHWEST MONTANA

CITY           SKY/WX    TMP DP  RH WIND       PRES   REMARKS
BOZEMAN        CLEAR     68  48  48 S12       30.25R
DILLON         CLEAR     63  45  51 SW8       30.27R
W YELLOWSTONE  CLEAR     55  37  50 CALM      30.42R
THREE FORKS      N/A     67  67 100 CALM      30.21R
TWIN BRIDGES     N/A     68  50  52 CALM      30.23R
$$

MTZ009-010-012-014-046-048-049-054-310500-
EAST SLOPES AND CENTRAL MONTANA

CITY           SKY/WX    TMP DP  RH WIND       PRES   REMARKS
CUT BANK       CLEAR     73  35  25 CALM      30.19R
GREAT FALLS    CLEAR     74  40  29 E9        30.17R
MALMSTROM AFB  CLEAR     65  45  48 SE10      30.17R
HELENA         CLEAR     75  41  29 SW7       30.20R
CONRAD           N/A     63  50  62 E1        30.19R
$$

MTZ011-013-016-021-045-047-050-051-310500-
NORTH CENTRAL MONTANA

CITY           SKY/WX    TMP DP  RH WIND       PRES   REMARKS
HAVRE          CLEAR     71  50  47 E12       30.13R
LEWISTOWN      CLEAR     64  46  52 E5        30.26R
CHINOOK          N/A     72  52  49 CALM      30.14R
$$

MTZ017>020-022>027-061-062-310500-
NORTHEAST MONTANA

CITY           SKY/WX    TMP DP  RH WIND       PRES   REMARKS
GLASGOW        CLEAR     76  41  28 CALM      30.14R
JORDAN           N/A     67  45  45 SE6       30.18R
SIDNEY         CLEAR    N/A N/A N/A NW6       30.15R
WOLF POINT     CLEAR     67  50  54 CALM      30.14R
MALTA            N/A     67  53  60 CALM      30.10R
PLENTYWOOD       N/A     64  50  59 NE6       30.16S
POPLAR           N/A     66  48  52 NE3       30.16R
SCOBEY           N/A     60  50  69 N3        30.15S
$$

MTZ028>42-056>058-310500-
SOUTHCENTRAL AND SOUTHEAST MONTANA

CITY           SKY/WX    TMP DP  RH WIND       PRES   REMARKS
BAKER          CLEAR     65  44  46 CALM      30.22R
BILLINGS       CLEAR     77  39  25 NE7       30.22R
LIVINGSTON     CLEAR     66  37  34 VRB3      30.27R
MILES CITY     CLEAR     73  46  38 NE10      30.18R
EKALAKA          N/A     70  39  32 NE2       30.21R
FORSYTH          N/A     72  43  35 CALM      30.18R
LAUREL           N/A     73  37  26 CALM      30.18R
ROUNDUP          N/A     73  37  26 CALM      30.13R
$$

REGIONAL REPORTS...DAKOTAS

CITY           SKY/WX    TMP DP  RH WIND       PRES   REMARKS
WILLISTON      CLEAR     63  49  60 CALM      30.16R
MINOT          PTCLDY    67  46  47 SW6       30.12R
DICKINSON      CLEAR     64  48  56 E7        30.18R
BEACH          FAIR      59  55  88 CALM      30.21S
CROSBY         FAIR      57  54  88 SW5       30.15S
BISMARCK       CLEAR     65  52  62 CALM      30.15R
GRAND FORKS    CLEAR     60  52  74 W8        30.02R
FARGO          CLEAR     69  55  60 NW10      30.05R
BUFFALO SD       N/A     69  49  48 NE8       30.16R
RAPID CITY     CLEAR     65  51  60 W7        30.20R
$$

REGIONAL REPORTS...WYOMING/IDAHO/WASHINGTON

CITY           SKY/WX    TMP DP  RH WIND       PRES   REMARKS
GILLETTE       CLEAR     60  41  49 MISG      30.27R
SHERIDAN       CLEAR     62  48  60 S3        30.25R
BUFFALO WY     CLEAR     66  40  38 W9        30.33R
CODY           CLEAR     68  37  32 SW3       30.32R
YELLOWSTONE LA   N/A     51  35  54 W5        30.53R
IDAHO FALLS    CLEAR     64  47  53 S3        30.28R
SALMON         CLEAR     72  43  35 S3        30.18R
BOISE          CLEAR     84  39  20 N3        30.11S
SPOKANE        PTCLDY    87  31  13 CALM      30.07S
$$

REGIONAL REPORTS...ALBERTA

CITY           SKY/WX    TMP DP  RH WIND       PRES   REMARKS
EDMONTON       CLEAR     57  46  67 CALM      30.12R
CALGARY        PTCLDY    66  46  48 E8        30.18R
LETHBRIDGE     PTCLDY    66  50  55 E7        30.14R
MEDICINE HAT   CLEAR     72  39  30 E6        30.12R
WATERTON GATE    N/A     57  45  62 SW3         N/A
MILK RIVER       N/A     63  45  51 E8          N/A
$$

REGIONAL REPORTS...SASKATCHEWAN

CITY           SKY/WX    TMP DP  RH WIND       PRES   REMARKS
SWIFT CURRENT  CLEAR     70  45  40 NW3       30.16R
REGINA         PTCLDY    57  55  94 W5        30.12R
SASKATOON      PTCLDY    57  48  72 W6        30.11R
CYPRESS HILLS    N/A     64  36  34 N5          N/A
VAL MARIE        N/A     57  52  82 E6          N/A
ROCKGLEN         N/A     61  52  72 CALM        N/A
ASSINIBOIA       N/A     59  48  67 SW3         N/A
$$


USA.gov is the U.S. government's official web portal to all federal, state and local government web resources and services.